Cedar City, UT

4:15 PM MST on February 23, 2017 (GMT -0700)
Cedar City Regional

Weather History for KCDC - July, 2013

Change the Weather History Date:

Friday, July 5, 2013

  Actual Average Record
Temperature  
Mean Temperature 77 °F 72 °F  
Max Temperature 94 °F 89 °F 104 °F (1985)
Min Temperature 60 °F 55 °F 43 °F (2010)
Degree Days  
Heating Degree Days 0 0  
Month to date heating degree days 0 0  
Since 1 June heating degree days 11 76  
Since 1 July heating degree days 0 0  
Cooling Degree Days 12 7  
Month to date cooling degree days 70 33  
Year to date cooling degree days 223 134  
Since 1 June cooling degree days 221 126  
Growing Degree Days 26 (Base 50)    
Moisture  
Dew Point 51 °F    
Average Humidity 50    
Maximum Humidity 84    
Minimum Humidity 16    
Precipitation  
Precipitation 0.06 in 0.01 in 0.52 in (1998)
Month to date precipitation 0.36 0.07  
Year to date precipitation 4.43 5.64  
Sea Level Pressure  
Sea Level Pressure 29.78 in    
Wind  
Wind Speed 7 mph (SSW)    
Max Wind Speed 23 mph    
Max Gust Speed 30 mph    
Visibility 10 miles    
Events Rain , Thunderstorm    
T = Trace of Precipitation, MM = Missing Value Source: NWS Daily Summary

Daily Weather History Graph

Daily Weather History Graph

Search for Another Location

Airport or City:

Trip Planner

Search our weather history database for the weather conditions in past years. The results will help you decide how hot, cold, wet, or windy it might be!

Date:

Astronomy

Jul. 05, 2013 Rise Set
Actual Time 6:16 AM MDT 8:57 PM MDT
Civil Twilight 5:45 AM MDT 9:28 PM MDT
Nautical Twilight 5:06 AM MDT 10:06 PM MDT
Astronomical Twilight 4:23 AM MDT 10:50 PM MDT
Moon 4:17 AM MDT (7/5) 6:56 PM MDT (7/5)
Length of Visible Light 15h 42m
Length of Day
14h 40m
Waning Crescent, 6% of the Moon is Illuminated
Jul 5
Waning Crescent
Jul 8
New
Jul 15
First Quarter
Jul 22
Full
Jul 29
Last Quarter

Hourly Weather History & Observations

Time (MDT) Temp. Heat Index Dew Point Humidity Pressure Visibility Wind Dir Wind Speed Gust Speed Precip Events Conditions
12:53 AM 69.1 °F - 55.0 °F 61% 29.78 in 10.0 mi Calm Calm - N/A   Mostly Cloudy
1:27 AM 66.2 °F - 57.2 °F 73% 30.06 in 6.0 mi South 9.2 mph - 0.03 in Rain , Thunderstorm Light Thunderstorms and Rain
1:46 AM 66.2 °F - 57.2 °F 73% 30.05 in 10.0 mi SE 10.4 mph - 0.03 in   Partly Cloudy
1:53 AM 66.0 °F - 57.0 °F 73% 29.77 in 10.0 mi SE 9.2 mph - 0.03 in   Partly Cloudy
2:53 AM 68.0 °F - 55.9 °F 65% 29.73 in 10.0 mi SE 5.8 mph - N/A   Scattered Clouds
3:53 AM 66.0 °F - 55.9 °F 70% 29.76 in 10.0 mi East 5.8 mph - N/A   Clear
4:53 AM 62.1 °F - 57.0 °F 84% 29.79 in 10.0 mi WNW 6.9 mph - N/A   Clear
5:53 AM 64.0 °F - 54.0 °F 70% 29.83 in 10.0 mi East 3.5 mph - N/A   Clear
6:53 AM 60.1 °F - 55.0 °F 83% 29.84 in 10.0 mi SW 3.5 mph - N/A   Clear
7:53 AM 66.0 °F - 57.0 °F 73% 29.83 in 10.0 mi Calm Calm - N/A   Clear
8:53 AM 68.0 °F - 55.9 °F 65% 29.83 in 10.0 mi Calm Calm - N/A   Clear
9:53 AM 73.9 °F - 53.1 °F 48% 29.81 in 10.0 mi Calm Calm - N/A   Clear
10:53 AM 78.1 °F - 54.0 °F 43% 29.79 in 10.0 mi Calm Calm - N/A   Clear
11:53 AM 87.1 °F - 51.1 °F 29% 29.75 in 10.0 mi SW 15.0 mph 19.6 mph N/A   Clear
12:53 PM 89.1 °F - 48.0 °F 24% 29.73 in 10.0 mi SW 16.1 mph - N/A   Clear
1:53 PM 84.9 °F 83.3 °F 54.0 °F 34% 29.73 in 10.0 mi West 8.1 mph - 0.03 in Rain Light Rain
2:53 PM 91.9 °F - 48.0 °F 22% 29.68 in 10.0 mi SW 13.8 mph 27.6 mph 0.00 in   Clear
3:53 PM 93.9 °F - 46.0 °F 19% 29.67 in 10.0 mi WSW 15.0 mph 23.0 mph N/A   Partly Cloudy
4:53 PM 93.0 °F - 39.0 °F 15% 29.67 in 10.0 mi WSW 11.5 mph - N/A   Partly Cloudy
5:53 PM 91.9 °F - 41.0 °F 17% 29.65 in 10.0 mi SW 17.3 mph 27.6 mph N/A   Clear
6:53 PM 90.0 °F - 42.1 °F 19% 29.68 in 10.0 mi WSW 17.3 mph 24.2 mph N/A   Partly Cloudy
7:29 PM 84.2 °F - 46.4 °F 27% 29.94 in 10.0 mi WSW 25.3 mph 35.7 mph N/A Thunderstorm Thunderstorm
7:53 PM 84.0 °F - 43.0 °F 24% 29.70 in 10.0 mi WSW 17.3 mph 25.3 mph N/A   Clear
8:53 PM 82.0 °F - 44.1 °F 26% 29.72 in 10.0 mi South 11.5 mph - N/A   Clear
9:53 PM 79.0 °F - 46.0 °F 31% 29.72 in 10.0 mi South 10.4 mph - N/A   Clear
10:53 PM 75.0 °F - 46.9 °F 37% 29.73 in 10.0 mi SSW 11.5 mph 17.3 mph N/A   Clear
11:53 PM 75.0 °F - 48.0 °F 38% 29.70 in 10.0 mi SSW 11.5 mph - N/A   Clear